Tracking 19245 objects as of 18-Aug-2018
HD Live streaming from Space Station
objects crossing your sky now

GORIZONT 30

Track GORIZONT 30 now!
GORIZONT 30 is classified as:


NORAD ID: 23108
Int'l Code: 1994-030A
Perigee: 35,745.1 km
Apogee: 35,782.7 km
Inclination: 14.8 °
Period: 1,434.6 minutes
Semi major axis: 42134 km
RCS: 12.5892 m2 (large)
Launch date: May 20, 1994
Source: Commonwealth of Independent States (former USSR) (CIS)
Launch site: TYURATAM MISSILE AND SPACE COMPLEX (TTMTR)
aabbcc
Your satellite tracking list
Your tracking list is empty




NASA's NSSDC Master Catalog

Two Line Element Set (TLE):
1 23108U 94030A   18229.48314801 -.00000001 +00000-0 +00000-0 0  9993
2 23108 014.8116 012.1037 0004461 249.9789 108.5811 01.00378210088781
Source of the keplerian elements: AFSPC